DECAYED

CZ-6A DEB, 54313 (Decayed)

Orbit data source: Space-Track

CZ-6A DEB, 54313 was space debris in SSO originally from a launch on Fri, 11 Nov 2022 UTC launched from the Taiyaun Space Center, China (TSC). Debris objects in space refer to the collection of defunct objects orbiting the Earth. Examples of debris include non-operational satellites, rocket bodies, and fragments generated from explosions, collisions, or faulty payload assembly.

Loading next visibility...
Identifier
54313, 2022-151BG
Orbit
Decayed
Country
Flag of CNCN / PRC
Related business
Manufacturer
SAST
Mission
Decayed spacecraft
Bus & Motor
Unknown
Mass
Unknown
Launch date (UTC)
2022-11-11 (4 years ago)
Launch vehicle
Unknown
Launch site
Taiyaun Space Center, China (TSC)
Object type
Payload
Rocket body
Debris
Shape & HBR
Unknown shape, 0.1 m
Radar Cross Section
Medium (>0.1 m² and <1 m²)

Expand to show TLE details & history
Last TLE update: 8 months ago

TLE from 8 months ago
0 CZ-6A DEB
1 54313U 22151BG  25345.69509487  .11050177  47753+0  31430-1 0  9993
2 54313  98.5977  66.0242 0013904 335.7988  24.2633 16.02823749164163
Epoch: 2025-12-11T16:40Z
TLE epoch observation values (Epoch: 2025-12-11T16:40:56.196Z)
Latitude
-0.00005°
Longitude
95.14268°
Altitude
261.344 km
Speed
7.755 km/s
True Right ascension
04h 24m 05s
True Declination
0° 00' 00"
Sunlit
Object was in full shadow at epoch
Visualization orbit readout
Latitude
Unknown
Longitude
Unknown
Altitude
Unknown
Speed
Unknown
Apparent Right ascension
Unknown
Apparent Declination
Unknown
Sunlit
N/A
Visualization observer readout
Local Sidereal Time
17:45:04
Azimuth
Unknown
Elevation
Unknown
Doppler factor
Unknown
Orbital elements
Apogee altitude
272.751 km
Perigee altitude
254.282 km
Semi-major axis
6,641.653 km
Eccentricity
0.00139
Inclination
98.5977°
RAAN
66.0242°
Arg. of periapsis
335.7988°
True anomaly
24.32888°
Mean anomaly
24.2633°
Eccentric anomaly
24.29608°
Mean motion
4.00986 °/min
Orbital period
89.78 mins
BSTAR
0.03143
Loading maneuver chart data...
Computing Atmospheric mass density...
Loading historical data...
Loading historical data...
Loading historical data...
Loading historical data...
Loading historical data...
Loading historical data...
Loading historical data...

Documentation

Showing up to 5 results
|